Regional Weather Roundup
Issued by NWS

Home | Current Version | Previous Version | Graphics & Text | Print | Product List | Glossary On
Versions: 1 2 3 4 5 6 7 8 9 10 11 12 13 14 15 16 17 18 19 20 21 22 23 24 25 26 27
000
ASUS45 KTFX 230610
RWRMT
MONTANA REGIONAL WEATHER ROUNDUP
NATIONAL WEATHER SERVICE GREAT FALLS MT
1200 AM MDT SUN JUL 23 2017

NOTE: "FAIR" INDICATES FEW OR NO CLOUDS BELOW 12000 FEET WITH NO
SIGNIFICANT WEATHER AND/OR OBSTRUCTIONS TO VISIBILITY.

MTZ001>007-043-230700-
WEST OF THE DIVIDE

CITY           SKY/WX    TMP DP  RH WIND       PRES   REMARKS
KALISPELL      CLEAR     61  48  62 NW3       30.07S
MISSOULA       CLEAR     68  44  42 CALM      30.10S
BUTTE          CLEAR     60  39  45 S7        30.25S
MULLAN PASS    CLEAR     60  40  47 VRB5      30.28F
ANACONDA         N/A     61  41  48 S6        30.21S
DEER LODGE       N/A     63  41  45 W3        30.20F
EUREKA           N/A     66  46  48 MISG      30.06S
HAMILTON         N/A     64  46  52 CALM      30.12F
LIBBY            N/A     66  48  52 S3        30.06S
$$

MTZ008-052>055-230700-
SOUTHWEST MONTANA

CITY           SKY/WX    TMP DP  RH WIND       PRES   REMARKS
BOZEMAN        CLEAR     59  43  55 CALM      30.16R
DILLON         CLEAR     68  32  26 SE3       30.19S
W YELLOWSTONE  CLEAR     52  37  58 CALM      30.31S
ENNIS          CLEAR     57  32  38 CALM      30.25S
$$

MTZ009-010-012-014-046-048-049-054-230700-
EAST SLOPES AND CENTRAL MONTANA

CITY           SKY/WX    TMP DP  RH WIND       PRES   REMARKS
CUT BANK       CLEAR     65  43  44 W12       30.09S
GREAT FALLS    CLEAR     71  39  31 N3        30.09S
MALMSTROM AFB  CLEAR     68  39  34 W5        30.09R
HELENA         CLEAR     76  41  28 W3        30.13R
CHOTEAU          N/A     66  43  42 SW6       30.13S
$$

MTZ011-013-016-021-045-047-050-051-230700-
NORTH CENTRAL MONTANA

CITY           SKY/WX    TMP DP  RH WIND       PRES   REMARKS
HAVRE          CLEAR     68  43  40 SE6       30.01S
LEWISTOWN      CLEAR     61  39  44 SE8       30.13F
N BAR RANCH      N/A     59  37  44 W5        30.19S
CHINOOK          N/A     70  45  40 CALM      30.01S
$$

MTZ017>020-022>027-061-062-230700-
NORTHEAST MONTANA

CITY           SKY/WX    TMP DP  RH WIND       PRES   REMARKS
GLASGOW        CLEAR     66  46  48 MISG      30.04R
JORDAN           N/A     61  42  49 CALM      30.06S
SIDNEY         PTCLDY    64  47  53 CALM      30.05S
WOLF POINT     CLEAR     66  46  48 CALM      30.05R
MALTA          CLEAR     66  46  48 NE7       30.03R
PLENTYWOOD       N/A     63  50  63 CALM      30.06R
POPLAR           N/A     64  48  55 CALM      30.05R
$$

MTZ028>42-056>058-230700-
SOUTHCENTRAL AND SOUTHEAST MONTANA

CITY           SKY/WX    TMP DP  RH WIND       PRES   REMARKS
BAKER          CLEAR     62  41  46 CALM      30.10R
BILLINGS       CLEAR     75  32  20 NE5       30.09S
LIVINGSTON     CLEAR     60  35  39 S3        30.17S
MILES CITY     CLEAR     73  41  31 CALM      30.06S
BIG TIMBER     CLEAR     66  36  32 N6        30.18S
FORSYTH          N/A     72  39  30 CALM      30.06S
LAUREL           N/A     70  32  24 MISG      30.07F
$$

REGIONAL REPORTS...DAKOTAS

CITY           SKY/WX    TMP DP  RH WIND       PRES   REMARKS
WILLISTON      CLEAR     64  52  64 N5        30.05S
MINOT          CLEAR     58  53  84 NW6       30.03S
DICKINSON      CLEAR     61  50  67 E3        30.06R
BEACH          CLOUDY    55  50  82 CALM      30.11S
CROSBY           N/A     57  55  94 SE3       30.06S
TIOGA            N/A     55  55 100 CALM      30.08R
WATFORD CITY     N/A     57  48  72 CALM      30.05S
BISMARCK       CLEAR     65  55  70 N3        30.04R
GRAND FORKS    CLEAR     63  60  90 NW9       29.91R
FARGO          CLEAR     61  58  90 W8        29.91R
BUFFALO SD       N/A     70  45  40 NE9       30.03S
RAPID CITY     CLEAR     64  44  48 N9        30.11R
$$

REGIONAL REPORTS...WYOMING/IDAHO/WASHINGTON

CITY           SKY/WX    TMP DP  RH WIND       PRES   REMARKS
GILLETTE       CLEAR     57  35  43 CALM      30.17R
SHERIDAN       CLEAR     62  43  49 CALM      30.14S
BUFFALO WY     CLEAR     68  33  27 NW9       30.22R
CODY           CLEAR     64  33  31 SW5       30.21S
YELLOWSTONE LA   N/A     48  37  65 CALM      30.42S
IDAHO FALLS    CLEAR     60  52  74 CALM      30.15S
BOISE          CLEAR     76  39  26 CALM      30.00F
SPOKANE        CLEAR     75  48  38 SW5       30.06F
$$

REGIONAL REPORTS...ALBERTA

CITY           SKY/WX    TMP DP  RH WIND       PRES   REMARKS
EDMONTON       CLEAR     61  54  77 S3        29.92F
CALGARY        CLEAR     70  45  40 W8        30.03F
LETHBRIDGE     CLEAR     68  48  49 W9G18     30.02S
MEDICINE HAT   CLEAR     64  52  63 SW2       29.97S
WATERTON GATE    N/A     54  48  82 SW1         N/A
MILK RIVER       N/A     57  50  77 NW5         N/A
$$

REGIONAL REPORTS...SASKATCHEWAN

CITY           SKY/WX    TMP DP  RH WIND       PRES   REMARKS
SWIFT CURRENT  CLEAR     57  50  77 S10       30.03S
REGINA         PTCLDY    61  54  77 SE9       30.04R
SASKATOON      PTCLDY    63  55  77 S6        29.99F
CYPRESS HILLS    N/A     63  43  48 SE7         N/A
VAL MARIE        N/A     64  48  55 SE8         N/A
ROCKGLEN         N/A     59  50  72 SE3         N/A
$$




USA.gov is the U.S. government's official web portal to all federal, state and local government web resources and services.